Location: Unspecified
(0.0000°N, 0.0000°E)
Time: 17:42:14
(UTC+00:00)

Envisat - Pass Details

Date: 10 May 2021
Orbit: 764 x 766 km, 98.1° (Epoch: 14 May)

Event Time Altitude Azimuth Distance (km) Brightness Sun altitude
Rises 04:42:42 0° 23° (NNE) 3,214 6.9 -17.5°
Reaches altitude 10° 04:45:05 10° 29° (NNE) 2,291 6.1 -17.0°
Maximum altitude 04:49:55 47° 102° (ESE) 1,003 4.0 -15.8°
Drops below altitude 10° 04:54:46 10° 175° (S) 2,301 5.3 -14.7°
Sets 04:57:09 0° 181° (S) 3,229 6.0 -14.1°
